www.pogodaiklimat.ru

Погода и климат >> Архив погоды >> Россия >> Томская область >> Тегульдет


ПОГОДА в Тегульдете

  • Прогноз погоды в Тегульдете
  • Монитор погоды в Тегульдете

АРХИВ ПОГОДЫ в Тегульдете

Время (UTC), дата Ветер
(напр.,м/с)
 
Видим.   Явления Облачность Т
(С)
Тd
(С)
f
(%)
Тe
(С)
Тes
(С)
Комфортность P
(гПа)
Po
(гПа)
Тmin
(С)
Tmax
(С)
R
(мм)
R24
(мм)
S
(см)
06 19.08 Ю 2 10 км 10 баллов +21.7 +13.3 59 +24 +24 комфорт 1014.0 998.7
09 19.08 СВ 1 10 км в посл. час ливневой дождь 10 баллов +17.9 +14.2 79 +19 +19 1014.2 998.7
12 19.08 Ю 1 10 км {гроза, ливн. осадки} 10/8 600 м
[Sc Ac As]
+18.5 +13.9 75 +20 +20 1013.2 997.4 +21.8 0.4
15 19.08 ЮВ 1 10 км 10 баллов +15.7 +13.4 86 +16 +16 1014.3 998.7
18 19.08 ЮЗ 1 н/о н/о +15.2 +14.1 93
21 19.08 Ю 1 10 км 10 баллов +15.1 +14.0 93
00 20.08 СЗ 2 10 км {ливн. осадки} н/о +14.0 +13.1 94 +14.1
03 20.08 З 1 10 км 10 баллов +14.5 +13.4 93 +15 +15 1014.4 998.7
06 20.08 СЗ 1 10 км 10 баллов +15.7 +13.7 88 +16 +16 1014.3 998.7
09 20.08 З 1 10 км 10 баллов +15.4 +13.9 91 +16 +16 1014.3 998.7
12 20.08 З 1 10 км {ливн. осадки} 10/10 600 м
[Sc]
+14.7 +13.0 90 +15 +15 1013.6 997.6 +16.0 2
15 20.08 ЮЗ 1 10 км слаб. ливневой дождь 10 баллов +13.7 +12.8 94 +14 +14 1014.4 998.7
18 20.08 ЮЗ 1 10 км 7 баллов +10.6 +9.7 94 +10 +10 1014.6 998.7
21 20.08 Ю 1 10 км 9 баллов +9.3 +8.5 95 +9 +9 1014.7 998.7
00 21.08 штиль 0 4000 м дымка 6/0
[Ci ing]
+9.3 +8.5 95 +8 +9 1014.0 997.7 +8.2 3
03 21.08 Ю 1 4000 м дымка 10 баллов +12.3 +11.4 94 +12 +12 1015.8 1000.0
06 21.08 В 1 10 км 6 баллов +17.1 +9.3 60 +18 +23 1014.3 998.7
09 21.08 В 2 10 км 10 баллов +18.0 +9.6 58 +19 +19 1014.2 998.7
12 21.08 В 1 10 км 6/6 600 м
[Sc]
+15.3 +13.7 90 +16 +16 1013.6 997.7 +18.9 0.7
15 21.08 штиль 0 10 км ясно +10.9 +9.8 93 +10 +10 1014.6 998.7
18 21.08 штиль 0 10 км ясно +9.2 +8.4 95 +8 +8 1013.3 997.3
21 21.08 С 1 10 км 10 баллов +10.6 +9.8 95 +10 +10 1011.9 996.0
00 22.08 штиль 0 10 км {ливн. осадки} 10/10 600 м
[Sc]
+10.8 +9.9 94 +10 +10 1011.2 995.0 +8.8 1
03 22.08 ЮВ 1 10 км 7 баллов +14.6 +11.4 81 +15 +17 1011.6 996.0
06 22.08 В 1 10 км 8/8 600 м
[Cu hum]
+17.6 +9.5 59 +19 +22 1011.5 996.0
09 22.08 ЮВ 1 10 км 7 баллов +18.9 +9.1 53 +21 +23 комфорт 1010.1 994.7
12 22.08 штиль 0 10 км 10/6 600 м
[Cu hum Ci fib]
+17.9 +11.4 66 +18 +18 1009.1 993.4 +19.6
15 22.08 штиль 0 10 км 10 баллов +13.7 +12.4 92 +13 +13 1010.4 994.7
18 22.08 штиль 0 10 км 10/10 600 м
[Sc]
+13.2 +12.1 93 +13 +13 1009.0 993.3
21 22.08 С 1 10 км 10 баллов +12.8 +11.9 94 +13 +13 1007.7 992.0
00 23.08 С 1 4000 м слаб. ливневой дождь 10/10 300 м
[Cb cap]
+12.5 +11.3 92 +12 +12 1006.1 990.0 +12.5 6
03 23.08 С 1 4000 м слаб. дождь 10 баллов +12.7 +11.4 92 +13 +13 1004.9 989.3 +12.5
06 23.08 С 2
{13}
4000 м слаб. дождь 10/0 300 м
[As op]
+13.5 +12.3 92 +13 +15 1004.6 988.8
09 23.08 СЗ 1 4000 м слаб. дождь 10 баллов +13.9 +12.6 92 +14 +14 1006.3 990.7
12 23.08 СЗ 2 4000 м слаб. дождь 10/0 300 м
[As op]
+13.2 +11.9 92 +12 +12 1006.6 990.7 +14.1 15
15 23.08 З 2 4000 м слаб. дождь 10 баллов +13.3 +12.4 94 +12 +12 1009.0 993.3
18 23.08 З 2 1000 м дождь 10 баллов +13.0 +11.9 93 +12 +12 1009.0 993.3
21 23.08 З 2 4000 м слаб. дождь 10 баллов +13.1 +12.2 94 +12 +12 1009.0 993.3
00 24.08 З 2 4000 м слаб. дождь 10/0 300 м
[As op]
+13.1 +12.0 93 +12 +12 1008.1 992.2 +12.9 10
03 24.08 З 2 10 км 9 баллов +15.2 +13.0 87 +15 +16 1010.3 994.7 +12.9
06 24.08 З 2 10 км 9 баллов +20.6 +13.1 62 +24 +25 комфорт 1010.0 994.7
09 24.08 З 3 10 км 7 баллов +21.7 +10.5 49 +23 +25 комфорт 1011.3 996.0
12 24.08 З 1 10 км 6/0
[Cs]
+20.3 +13.5 65 +24 +24 комфорт 1010.9 995.3 +22.2 0.0
15 24.08 Ю 1 10 км 4 балла +13.0 +11.7 92 +13 +13 1013.1 997.3
18 24.08 З 1 10 км 10 баллов +14.7 +12.0 84 +15 +15 1013.0 997.3
21 24.08 ЮВ 1 10 км 10 баллов +13.9 +12.6 92 +14 +14 1011.7 996.0
00 25.08 Ю 2 10 км {ливн. осадки} 10/10 600 м
[Sc]
+14.5 +12.7 89 +14 +14 1010.7 994.8 +11.8 0.6
03 25.08 ЮЗ 2 10 км 6 баллов +17.9 +13.0 73 +18 +21 1012.8 997.3
06 25.08 ЮЗ 3 10 км 7 баллов +21.1 +13.5 62 +24 +26 комфорт 1011.3 996.0
09 25.08 З 4 10 км 7 баллов +21.6 +9.1 45 +23 +24 комфорт 1012.6 997.3
12 25.08 З 3 10 км 8/3 600 м
[Sc Ac As]
+19.0 +9.7 55 +20 +20 1013.1 997.3 +22.0
15 25.08 З 2 10 км 1 балл +14.6 +10.0 74 +14 +14 1017.0 1001.3
18 25.08 штиль 0 10 км ясно +7.8 +6.6 92 +7 +7 1018.9 1002.7
21 25.08 Ю 1 10 км ясно +6.3 +5.4 94 +5 +5 1018.9 1002.7
00 26.08 штиль 0 10 км 9/0
[Ci fib]
+5.1 +4.4 95 +4 +4 1018.7 1002.0 +4.5
03 26.08 ЮЗ 3 10 км 9 баллов +16.4 +9.3 63 +16 +17 1018.4 1002.7

 

Местоположение метеостанции Тегульдет (Томская область, Россия): широта 57.30 долгота 88.15 высота над уровнем моря 132 м.

В архиве по умолчанию представлена погода в Тегульдете за последнюю неделю. Архивные данные за месяц целиком и за предыдущие месяцы, начиная с января 2011 года, Вы можете получить, выбрав интересующий диапазон дат из раскрывающегося списка и нажав кнопку "Ввод!".


*Определитесь, кто Вы:
робот инопланетянин человек

Внимание! Время в таблицах - всемирное. Для получения местного времени необходимо прибавить поправку, которая равна 7 ч.

Смотрите также архив погоды в соседних городах и на ближайших метеорологических станциях:

Погода в Тюхтете (Красноярский край, Россия) (111 км)
Погода в Первомайском (Томская область, Россия) (119 км)
Погода в Мариинске (Кемеровская область, Россия) (128 км)
Погода в Тяжине (Кемеровская область, Россия) (133 км)
Погода в Лосиноборске (Красноярский край, Россия) (145 км)
Погода в Новобирилюссах (Красноярский край, Россия) (145 км)
Погода в Боготоле (Красноярский край, Россия) (148 км)
Погода в Яе (Кемеровская область, Россия) (160 км)
Погода в Большом Улуе (Красноярский край, Россия) (162 км)
Погода в Степановке (Томская область, Россия) (170 км)

Пояснения к столбцам:

Ветер - указаны скорость ветра в м/с - средняя за 10 мин, порывы в срок и между сроками (в фигурных скобках) и направление, откуда дует ветер: С - северный, СВ - северо-восточный, В - восточный, ЮВ - юго-восточный, Ю - южный, ЮЗ - юго-западный, З - западный, СЗ - северо-западный.
Видимость - горизонтальная дальность видимости в метрах или километрах. При видимости от 1 до 10 км при отсутствии осадков обычно наблюдается дымка, при ухудшении видимости до 1 км и менее - туман. В сухую погоду видимость может ухудшаться дымом, пылью или мглою.
Явления - указаны атмосферные явления, наблюдавшиеся в срок или в последний час перед сроком; фигурными скобками обозначены явления, наблюдавшиеся между сроками (за 1-3 часа до срока); квадратными скобками обозначены град или гололедные отложения с указанием их диаметра в мм.
Облачность - указаны через наклонную черту общая и нижняя облачность в баллах и высота нижней границы облаков в метрах; квадратными скобками обозначены формы облаков: Ci - перистые, Cs - перисто-слоистые, Cc - перисто-кучевые, Ac - высококучевые, As - высокослоистые, Sc - слоисто-кучевые, Ns - слоисто-дождевые, Cu - кучевые, Cb - кучево-дождевые. Подробнее классификацию облаков см. в Атласе облаков (PDF).
T - Температура воздуха - температура, измеренная на высоте 2 м над землей.
Td - Температура точки росы - температура, при понижении до которой содержащийся в воздухе водяной пар достигнет насыщения.
f - Относительная влажность воздуха - влажноcть воздуха, измеренная на высоте 2 м над землей.
Te - Эффективная температура - температура, которую ощущает одетый по сезону человек в тени. Характеристика душности погоды. При расчете учитывается влияние влажности воздуха и скорости ветра на теплоощущения человека.
Tes - Эффективная температура на солнце - температура, которую ощущает человек, с поправкой на солнечный нагрев. Характеристика знойности погоды. Зависит от высоты солнца над горизонтом, облачности и скорости ветра. Ночью, в пасмурную погоду, а также при ветре 12 м/с и более поправка равна нулю.
P - Атмосферное давление - приведенное к уровню моря атмосферное давление.
Po - Атмосферное давление - измеренное на уровне метеостанции атмосферное давление.
Tmin - Минимальная температура - минимум температуры воздуха на высоте 2 м над землей.
Tmax - Максимальная температура - максимум температуры воздуха на высоте 2 м над землей.
R - Количество осадков - Количество выпавших осадков за период времени, мм. При наведении курсора мыши на число - период времени, за который выпало указанное количество осадков.
R24 - Количество осадков - Количество выпавших осадков за 24 часа, мм.
S - Снежный покров - Высота снежного покрова, см. При наведении курсора мыши на число - состояние снежного покрова и степень покрытия местности в баллах.